owner,sensor,date,latitude,longitude,vertical_datum,sea_water_practical_salinity,qcFlag 
SCCF RECON,ioos:station:SCCF:13:1,2011-05-01T00:00:00Z,26.5255,-82.0032,1.97,30.65,1111122 
SCCF RECON,ioos:station:SCCF:13:1,2011-05-01T01:00:00Z,26.5255,-82.0032,2.05,29.77,1111122 
SCCF RECON,ioos:station:SCCF:13:1,2011-05-01T02:00:00Z,26.5255,-82.0032,2.17,29.56,1111122 
SCCF RECON,ioos:station:SCCF:13:1,2011-05-01T03:00:00Z,26.5255,-82.0032,2.24,29.9,1111122 
SCCF RECON,ioos:station:SCCF:13:1,2011-05-01T04:00:00Z,26.5255,-82.0032,2.287,31.72,1111122 
SCCF RECON,ioos:station:SCCF:13:1,2011-05-01T05:00:00Z,26.5255,-82.0032,2.32,32.31,1111122 
SCCF RECON,ioos:station:SCCF:13:1,2011-05-01T06:00:00Z,26.5255,-82.0032,2.31,33.45,1111122 
SCCF RECON,ioos:station:SCCF:13:1,2011-05-01T07:00:00Z,26.5255,-82.0032,2.259,34.02,1111122 
SCCF RECON,ioos:station:SCCF:13:1,2011-05-01T08:00:00Z,26.5255,-82.0032,2.169,33.77,1111122 
SCCF RECON,ioos:station:SCCF:13:1,2011-05-01T09:00:00Z,26.5255,-82.0032,2.14,32.73,1111122 
SCCF RECON,ioos:station:SCCF:13:1,2011-05-01T10:00:00Z,26.5255,-82.0032,2.1,31.19,1111122 
SCCF RECON,ioos:station:SCCF:13:1,2011-05-01T11:00:00Z,26.5255,-82.0032,2.06,30.32,1111122 
SCCF RECON,ioos:station:SCCF:13:1,2011-05-01T12:00:00Z,26.5255,-82.0032,2.1,29.35,1111122 
SCCF RECON,ioos:station:SCCF:13:1,2011-05-01T13:00:00Z,26.5255,-82.0032,2.23,29.38,1111122 
SCCF RECON,ioos:station:SCCF:13:1,2011-05-01T14:00:00Z,26.5255,-82.0032,2.337,32.15,1111122 
SCCF RECON,ioos:station:SCCF:13:1,2011-05-01T15:00:00Z,26.5255,-82.0032,2.392,33.38,1111122 
SCCF RECON,ioos:station:SCCF:13:1,2011-05-01T16:00:00Z,26.5255,-82.0032,2.459,34.62,1111122 
SCCF RECON,ioos:station:SCCF:13:1,2011-05-01T17:00:00Z,26.5255,-82.0032,2.486,35.03,1111122 
SCCF RECON,ioos:station:SCCF:13:1,2011-05-01T18:00:00Z,26.5255,-82.0032,2.43,35.1,1111122 
SCCF RECON,ioos:station:SCCF:13:1,2011-05-01T19:00:00Z,26.5255,-82.0032,2.317,35.15,1111122 
SCCF RECON,ioos:station:SCCF:13:1,2011-05-01T20:00:00Z,26.5255,-82.0032,2.231,35.11,1111122 
SCCF RECON,ioos:station:SCCF:13:1,2011-05-01T21:00:00Z,26.5255,-82.0032,2.161,34.57,1111122 
SCCF RECON,ioos:station:SCCF:13:1,2011-05-01T22:00:00Z,26.5255,-82.0032,2.11,32.41,1111122 
SCCF RECON,ioos:station:SCCF:13:1,2011-05-01T23:00:00Z,26.5255,-82.0032,2.045,31.82,1111122 
SCCF RECON,ioos:station:SCCF:13:1,2011-05-02T00:00:00Z,26.5255,-82.0032,1.998,31.18,1111122 
SCCF RECON,ioos:station:SCCF:13:1,2011-05-02T01:00:00Z,26.5255,-82.0032,2.03,30.37,1111122 
SCCF RECON,ioos:station:SCCF:13:1,2011-05-02T02:00:00Z,26.5255,-82.0032,2.15,30.03,1111122 
SCCF RECON,ioos:station:SCCF:13:1,2011-05-02T03:00:00Z,26.5255,-82.0032,2.258,30.05,1111122 
SCCF RECON,ioos:station:SCCF:13:1,2011-05-02T04:00:00Z,26.5255,-82.0032,2.35,32.18,1111122 
SCCF RECON,ioos:station:SCCF:13:1,2011-05-02T05:00:00Z,26.5255,-82.0032,2.39,33.11,1111122 
SCCF RECON,ioos:station:SCCF:13:1,2011-05-02T06:00:00Z,26.5255,-82.0032,2.36,34.09,1111122 
SCCF RECON,ioos:station:SCCF:13:1,2011-05-02T07:00:00Z,26.5255,-82.0032,2.328,34.6,1111122 
SCCF RECON,ioos:station:SCCF:13:1,2011-05-02T08:00:00Z,26.5255,-82.0032,2.289,34.65,1111122 
SCCF RECON,ioos:station:SCCF:13:1,2011-05-02T09:00:00Z,26.5255,-82.0032,2.22,34.3,1111122 
SCCF RECON,ioos:station:SCCF:13:1,2011-05-02T10:00:00Z,26.5255,-82.0032,2.17,34.0,1111122 
SCCF RECON,ioos:station:SCCF:13:1,2011-05-02T11:00:00Z,26.5255,-82.0032,2.149,32.49,1111122 
SCCF RECON,ioos:station:SCCF:13:1,2011-05-02T12:00:00Z,26.5255,-82.0032,2.19,31.44,1111122 
SCCF RECON,ioos:station:SCCF:13:1,2011-05-02T13:00:00Z,26.5255,-82.0032,2.305,31.93,1111122 
SCCF RECON,ioos:station:SCCF:13:1,2011-05-02T14:00:00Z,26.5255,-82.0032,2.41,33.9,1111122 
SCCF RECON,ioos:station:SCCF:13:1,2011-05-02T15:00:00Z,26.5255,-82.0032,2.486,34.22,1111122 
SCCF RECON,ioos:station:SCCF:13:1,2011-05-02T16:00:00Z,26.5255,-82.0032,2.539,34.93,1111122 
SCCF RECON,ioos:station:SCCF:13:1,2011-05-02T17:00:00Z,26.5255,-82.0032,2.559,35.07,1111122 
SCCF RECON,ioos:station:SCCF:13:1,2011-05-02T18:00:00Z,26.5255,-82.0032,2.55,35.13,1111122 
SCCF RECON,ioos:station:SCCF:13:1,2011-05-02T19:00:00Z,26.5255,-82.0032,2.462,35.16,1111122 
SCCF RECON,ioos:station:SCCF:13:1,2011-05-02T20:00:00Z,26.5255,-82.0032,2.36,35.16,1111122 
SCCF RECON,ioos:station:SCCF:13:1,2011-05-02T21:00:00Z,26.5255,-82.0032,2.26,35.11,1111122 
SCCF RECON,ioos:station:SCCF:13:1,2011-05-02T22:00:00Z,26.5255,-82.0032,2.183,34.47,1111122 
SCCF RECON,ioos:station:SCCF:13:1,2011-05-02T23:00:00Z,26.5255,-82.0032,2.11,33.6,1111122 
SCCF RECON,ioos:station:SCCF:13:1,2011-05-03T00:00:00Z,26.5255,-82.0032,2.045,33.3,1111122 
SCCF RECON,ioos:station:SCCF:13:1,2011-05-03T01:00:00Z,26.5255,-82.0032,2.01,32.49,1111122 
SCCF RECON,ioos:station:SCCF:13:1,2011-05-03T02:00:00Z,26.5255,-82.0032,2.077,31.62,1111122 
SCCF RECON,ioos:station:SCCF:13:1,2011-05-03T03:00:00Z,26.5255,-82.0032,2.188,31.23,1111122 
SCCF RECON,ioos:station:SCCF:13:1,2011-05-03T04:00:00Z,26.5255,-82.0032,2.28,31.65,1111122 
SCCF RECON,ioos:station:SCCF:13:1,2011-05-03T05:00:00Z,26.5255,-82.0032,2.3,33.59,1111122 
SCCF RECON,ioos:station:SCCF:13:1,2011-05-03T06:00:00Z,26.5255,-82.0032,2.29,33.32,1111122 
SCCF RECON,ioos:station:SCCF:13:1,2011-05-03T07:00:00Z,26.5255,-82.0032,2.303,33.78,1111122 
SCCF RECON,ioos:station:SCCF:13:1,2011-05-03T08:00:00Z,26.5255,-82.0032,2.3,34.26,1111122 
SCCF RECON,ioos:station:SCCF:13:1,2011-05-03T09:00:00Z,26.5255,-82.0032,2.23,34.52,1111122 
SCCF RECON,ioos:station:SCCF:13:1,2011-05-03T10:00:00Z,26.5255,-82.0032,2.17,34.44,1111122 
SCCF RECON,ioos:station:SCCF:13:1,2011-05-03T11:00:00Z,26.5255,-82.0032,2.18,32.93,1111122 
SCCF RECON,ioos:station:SCCF:13:1,2011-05-03T12:00:00Z,26.5255,-82.0032,2.24,32.45,1111122 
SCCF RECON,ioos:station:SCCF:13:1,2011-05-03T13:00:00Z,26.5255,-82.0032,2.3,32.44,1111122 
SCCF RECON,ioos:station:SCCF:13:1,2011-05-03T14:00:00Z,26.5255,-82.0032,2.367,34.08,1111122 
SCCF RECON,ioos:station:SCCF:13:1,2011-05-03T15:00:00Z,26.5255,-82.0032,2.459,34.44,1111122 
SCCF RECON,ioos:station:SCCF:13:1,2011-05-03T16:00:00Z,26.5255,-82.0032,2.53,34.81,1111122 
SCCF RECON,ioos:station:SCCF:13:1,2011-05-03T17:00:00Z,26.5255,-82.0032,2.571,35.03,1111122 
SCCF RECON,ioos:station:SCCF:13:1,2011-05-03T18:00:00Z,26.5255,-82.0032,2.59,35.07,1111122 
SCCF RECON,ioos:station:SCCF:13:1,2011-05-03T19:00:00Z,26.5255,-82.0032,2.56,35.19,1111122 
SCCF RECON,ioos:station:SCCF:13:1,2011-05-03T20:00:00Z,26.5255,-82.0032,2.45,35.24,1111122 
SCCF RECON,ioos:station:SCCF:13:1,2011-05-03T21:00:00Z,26.5255,-82.0032,2.34,35.24,1111122 
SCCF RECON,ioos:station:SCCF:13:1,2011-05-03T22:00:00Z,26.5255,-82.0032,2.251,34.94,1111122 
SCCF RECON,ioos:station:SCCF:13:1,2011-05-03T23:00:00Z,26.5255,-82.0032,2.18,35.01,1111122 
SCCF RECON,ioos:station:SCCF:13:1,2011-05-04T00:00:00Z,26.5255,-82.0032,2.11,34.66,1111122 
SCCF RECON,ioos:station:SCCF:13:1,2011-05-04T01:00:00Z,26.5255,-82.0032,2.05,33.8,1111122 
SCCF RECON,ioos:station:SCCF:13:1,2011-05-04T02:00:00Z,26.5255,-82.0032,2.04,32.77,1111122 
SCCF RECON,ioos:station:SCCF:13:1,2011-05-04T03:00:00Z,26.5255,-82.0032,2.149,31.93,1111122 
SCCF RECON,ioos:station:SCCF:13:1,2011-05-04T04:00:00Z,26.5255,-82.0032,2.27,31.52,1111122 
SCCF RECON,ioos:station:SCCF:13:1,2011-05-04T05:00:00Z,26.5255,-82.0032,2.356,33.6,1111122 
SCCF RECON,ioos:station:SCCF:13:1,2011-05-04T06:00:00Z,26.5255,-82.0032,2.417,33.96,1111122 
SCCF RECON,ioos:station:SCCF:13:1,2011-05-04T07:00:00Z,26.5255,-82.0032,2.441,34.49,1111122 
SCCF RECON,ioos:station:SCCF:13:1,2011-05-04T08:00:00Z,26.5255,-82.0032,2.43,34.87,1111122 
SCCF RECON,ioos:station:SCCF:13:1,2011-05-04T09:00:00Z,26.5255,-82.0032,2.38,34.99,1111122 
SCCF RECON,ioos:station:SCCF:13:1,2011-05-04T10:00:00Z,26.5255,-82.0032,2.34,34.99,1111122 
SCCF RECON,ioos:station:SCCF:13:1,2011-05-04T11:00:00Z,26.5255,-82.0032,2.32,34.89,1111122 
SCCF RECON,ioos:station:SCCF:13:1,2011-05-04T12:00:00Z,26.5255,-82.0032,2.3,34.85,1111122 
SCCF RECON,ioos:station:SCCF:13:1,2011-05-04T13:00:00Z,26.5255,-82.0032,2.292,34.29,1111122 
SCCF RECON,ioos:station:SCCF:13:1,2011-05-04T14:00:00Z,26.5255,-82.0032,2.373,33.47,1111122 
SCCF RECON,ioos:station:SCCF:13:1,2011-05-04T15:00:00Z,26.5255,-82.0032,2.47,34.61,1111122 
SCCF RECON,ioos:station:SCCF:13:1,2011-05-04T16:00:00Z,26.5255,-82.0032,2.54,34.86,1111122 
SCCF RECON,ioos:station:SCCF:13:1,2011-05-04T17:00:00Z,26.5255,-82.0032,2.579,35.0,1111122 
SCCF RECON,ioos:station:SCCF:13:1,2011-05-04T18:00:00Z,26.5255,-82.0032,2.592,35.26,1111122 
SCCF RECON,ioos:station:SCCF:13:1,2011-05-04T19:00:00Z,26.5255,-82.0032,2.578,35.35,1111122 
SCCF RECON,ioos:station:SCCF:13:1,2011-05-04T20:00:00Z,26.5255,-82.0032,2.499,35.39,1111122 
SCCF RECON,ioos:station:SCCF:13:1,2011-05-04T21:00:00Z,26.5255,-82.0032,2.395,35.38,1111122 
SCCF RECON,ioos:station:SCCF:13:1,2011-05-04T22:00:00Z,26.5255,-82.0032,2.296,35.19,1111122 
SCCF RECON,ioos:station:SCCF:13:1,2011-05-04T23:00:00Z,26.5255,-82.0032,2.215,35.11,1111122 
SCCF RECON,ioos:station:SCCF:13:1,2011-05-05T00:00:00Z,26.5255,-82.0032,2.13,34.77,1111122 
SCCF RECON,ioos:station:SCCF:13:1,2011-05-05T01:00:00Z,26.5255,-82.0032,2.056,34.0,1111122 
SCCF RECON,ioos:station:SCCF:13:1,2011-05-05T02:00:00Z,26.5255,-82.0032,2.0,33.18,1111122 
SCCF RECON,ioos:station:SCCF:13:1,2011-05-05T03:00:00Z,26.5255,-82.0032,2.0,31.98,1111122 
SCCF RECON,ioos:station:SCCF:13:1,2011-05-05T04:00:00Z,26.5255,-82.0032,2.1,31.42,1111122 
SCCF RECON,ioos:station:SCCF:13:1,2011-05-05T05:00:00Z,26.5255,-82.0032,2.21,31.14,1111122 
SCCF RECON,ioos:station:SCCF:13:1,2011-05-05T06:00:00Z,26.5255,-82.0032,2.29,31.64,1111122 
SCCF RECON,ioos:station:SCCF:13:1,2011-05-05T07:00:00Z,26.5255,-82.0032,2.33,33.7,1111122 
SCCF RECON,ioos:station:SCCF:13:1,2011-05-05T08:00:00Z,26.5255,-82.0032,2.341,33.77,1111122 
SCCF RECON,ioos:station:SCCF:13:1,2011-05-05T09:00:00Z,26.5255,-82.0032,2.306,34.46,1111122 
SCCF RECON,ioos:station:SCCF:13:1,2011-05-05T10:00:00Z,26.5255,-82.0032,2.25,34.5,1111122 
SCCF RECON,ioos:station:SCCF:13:1,2011-05-05T11:00:00Z,26.5255,-82.0032,2.211,34.28,1111122 
SCCF RECON,ioos:station:SCCF:13:1,2011-05-05T12:00:00Z,26.5255,-82.0032,2.18,32.93,1111122 
SCCF RECON,ioos:station:SCCF:13:1,2011-05-05T13:00:00Z,26.5255,-82.0032,2.16,32.07,1111122 
SCCF RECON,ioos:station:SCCF:13:1,2011-05-05T14:00:00Z,26.5255,-82.0032,2.196,31.13,1111122 
SCCF RECON,ioos:station:SCCF:13:1,2011-05-05T15:00:00Z,26.5255,-82.0032,2.288,31.15,1111122 
SCCF RECON,ioos:station:SCCF:13:1,2011-05-05T16:00:00Z,26.5255,-82.0032,2.384,33.58,1111122 
SCCF RECON,ioos:station:SCCF:13:1,2011-05-05T17:00:00Z,26.5255,-82.0032,2.451,34.64,1111122 
SCCF RECON,ioos:station:SCCF:13:1,2011-05-05T18:00:00Z,26.5255,-82.0032,2.5,35.06,1111122 
SCCF RECON,ioos:station:SCCF:13:1,2011-05-05T19:00:00Z,26.5255,-82.0032,2.524,35.08,1111122 
SCCF RECON,ioos:station:SCCF:13:1,2011-05-05T20:00:00Z,26.5255,-82.0032,2.51,35.18,1111122 
SCCF RECON,ioos:station:SCCF:13:1,2011-05-05T21:00:00Z,26.5255,-82.0032,2.414,35.26,1111122 
SCCF RECON,ioos:station:SCCF:13:1,2011-05-05T22:00:00Z,26.5255,-82.0032,2.32,35.21,1111122 
SCCF RECON,ioos:station:SCCF:13:1,2011-05-05T23:00:00Z,26.5255,-82.0032,2.26,35.21,1111122 
SCCF RECON,ioos:station:SCCF:13:1,2011-05-06T00:00:00Z,26.5255,-82.0032,2.17,34.49,1111122 
SCCF RECON,ioos:station:SCCF:13:1,2011-05-06T01:00:00Z,26.5255,-82.0032,2.08,33.32,1111122 
SCCF RECON,ioos:station:SCCF:13:1,2011-05-06T02:00:00Z,26.5255,-82.0032,2.01,33.2,1111122 
SCCF RECON,ioos:station:SCCF:13:1,2011-05-06T03:00:00Z,26.5255,-82.0032,1.98,32.05,1111122 
SCCF RECON,ioos:station:SCCF:13:1,2011-05-06T04:00:00Z,26.5255,-82.0032,2.03,31.38,1111122 
SCCF RECON,ioos:station:SCCF:13:1,2011-05-06T05:00:00Z,26.5255,-82.0032,2.15,31.08,1111122 
SCCF RECON,ioos:station:SCCF:13:1,2011-05-06T06:00:00Z,26.5255,-82.0032,2.23,31.45,1111122 
SCCF RECON,ioos:station:SCCF:13:1,2011-05-06T07:00:00Z,26.5255,-82.0032,2.29,32.75,1111122 
SCCF RECON,ioos:station:SCCF:13:1,2011-05-06T08:00:00Z,26.5255,-82.0032,2.335,33.21,1111122 
SCCF RECON,ioos:station:SCCF:13:1,2011-05-06T09:00:00Z,26.5255,-82.0032,2.36,34.04,1111122 
SCCF RECON,ioos:station:SCCF:13:1,2011-05-06T10:00:00Z,26.5255,-82.0032,2.35,34.3,1111122 
SCCF RECON,ioos:station:SCCF:13:1,2011-05-06T11:00:00Z,26.5255,-82.0032,2.32,34.44,1111122 
SCCF RECON,ioos:station:SCCF:13:1,2011-05-06T12:00:00Z,26.5255,-82.0032,2.294,34.55,1111122 
SCCF RECON,ioos:station:SCCF:13:1,2011-05-06T13:00:00Z,26.5255,-82.0032,2.297,34.06,1111122 
SCCF RECON,ioos:station:SCCF:13:1,2011-05-06T14:00:00Z,26.5255,-82.0032,2.33,34.42,1111122 
SCCF RECON,ioos:station:SCCF:13:1,2011-05-06T15:00:00Z,26.5255,-82.0032,2.4,34.69,1111122 
SCCF RECON,ioos:station:SCCF:13:1,2011-05-06T16:00:00Z,26.5255,-82.0032,2.47,34.71,1111122 
SCCF RECON,ioos:station:SCCF:13:1,2011-05-06T17:00:00Z,26.5255,-82.0032,2.541,34.67,1111122 
SCCF RECON,ioos:station:SCCF:13:1,2011-05-06T18:00:00Z,26.5255,-82.0032,2.59,34.76,1111122 
SCCF RECON,ioos:station:SCCF:13:1,2011-05-06T19:00:00Z,26.5255,-82.0032,2.629,34.97,1111122 
SCCF RECON,ioos:station:SCCF:13:1,2011-05-06T20:00:00Z,26.5255,-82.0032,2.62,35.24,1111122 
SCCF RECON,ioos:station:SCCF:13:1,2011-05-06T21:00:00Z,26.5255,-82.0032,2.56,35.34,1111122 
SCCF RECON,ioos:station:SCCF:13:1,2011-05-06T22:00:00Z,26.5255,-82.0032,2.46,35.34,1111122 
SCCF RECON,ioos:station:SCCF:13:1,2011-05-06T23:00:00Z,26.5255,-82.0032,2.366,35.09,1111122 
SCCF RECON,ioos:station:SCCF:13:1,2011-05-07T00:00:00Z,26.5255,-82.0032,2.27,34.94,1111122 
SCCF RECON,ioos:station:SCCF:13:1,2011-05-07T01:00:00Z,26.5255,-82.0032,2.181,34.66,1111122 
SCCF RECON,ioos:station:SCCF:13:1,2011-05-07T02:00:00Z,26.5255,-82.0032,2.109,34.4,1111122 
SCCF RECON,ioos:station:SCCF:13:1,2011-05-07T03:00:00Z,26.5255,-82.0032,2.04,33.41,1111122 
SCCF RECON,ioos:station:SCCF:13:1,2011-05-07T04:00:00Z,26.5255,-82.0032,2.02,32.9,1111122 
SCCF RECON,ioos:station:SCCF:13:1,2011-05-07T05:00:00Z,26.5255,-82.0032,2.1,32.41,1111122 
SCCF RECON,ioos:station:SCCF:13:1,2011-05-07T06:00:00Z,26.5255,-82.0032,2.22,32.03,1111122 
SCCF RECON,ioos:station:SCCF:13:1,2011-05-07T07:00:00Z,26.5255,-82.0032,2.288,32.46,1111122 
SCCF RECON,ioos:station:SCCF:13:1,2011-05-07T08:00:00Z,26.5255,-82.0032,2.335,33.44,1111122 
SCCF RECON,ioos:station:SCCF:13:1,2011-05-07T09:00:00Z,26.5255,-82.0032,2.37,33.63,1111122 
SCCF RECON,ioos:station:SCCF:13:1,2011-05-07T10:00:00Z,26.5255,-82.0032,2.39,34.37,1111122 
SCCF RECON,ioos:station:SCCF:13:1,2011-05-07T11:00:00Z,26.5255,-82.0032,2.39,34.78,1111122 
SCCF RECON,ioos:station:SCCF:13:1,2011-05-07T12:00:00Z,26.5255,-82.0032,2.38,34.84,1111122 
SCCF RECON,ioos:station:SCCF:13:1,2011-05-07T13:00:00Z,26.5255,-82.0032,2.36,34.72,1111122 
SCCF RECON,ioos:station:SCCF:13:1,2011-05-07T14:00:00Z,26.5255,-82.0032,2.348,34.85,1111122 
SCCF RECON,ioos:station:SCCF:13:1,2011-05-07T15:00:00Z,26.5255,-82.0032,2.377,34.58,1111122 
SCCF RECON,ioos:station:SCCF:13:1,2011-05-07T16:00:00Z,26.5255,-82.0032,2.44,34.62,1111122 
SCCF RECON,ioos:station:SCCF:13:1,2011-05-07T17:00:00Z,26.5255,-82.0032,2.499,34.72,1111122 
SCCF RECON,ioos:station:SCCF:13:1,2011-05-07T18:00:00Z,26.5255,-82.0032,2.55,34.85,1111122 
SCCF RECON,ioos:station:SCCF:13:1,2011-05-07T19:00:00Z,26.5255,-82.0032,2.591,34.74,1111122 
SCCF RECON,ioos:station:SCCF:13:1,2011-05-07T20:00:00Z,26.5255,-82.0032,2.603,34.73,1111122 
SCCF RECON,ioos:station:SCCF:13:1,2011-05-07T21:00:00Z,26.5255,-82.0032,2.57,34.87,1111122 
SCCF RECON,ioos:station:SCCF:13:1,2011-05-07T22:00:00Z,26.5255,-82.0032,2.498,34.95,1111122 
SCCF RECON,ioos:station:SCCF:13:1,2011-05-07T23:00:00Z,26.5255,-82.0032,2.42,34.93,1111122 
SCCF RECON,ioos:station:SCCF:13:1,2011-05-08T00:00:00Z,26.5255,-82.0032,2.34,34.8,1111122 
SCCF RECON,ioos:station:SCCF:13:1,2011-05-08T01:00:00Z,26.5255,-82.0032,2.261,34.73,1111122 
SCCF RECON,ioos:station:SCCF:13:1,2011-05-08T02:00:00Z,26.5255,-82.0032,2.18,34.68,1111122 
SCCF RECON,ioos:station:SCCF:13:1,2011-05-08T03:00:00Z,26.5255,-82.0032,2.1,34.09,1111122 
SCCF RECON,ioos:station:SCCF:13:1,2011-05-08T04:00:00Z,26.5255,-82.0032,2.042,33.32,1111122 
SCCF RECON,ioos:station:SCCF:13:1,2011-05-08T05:00:00Z,26.5255,-82.0032,2.056,32.62,1111122 
SCCF RECON,ioos:station:SCCF:13:1,2011-05-08T06:00:00Z,26.5255,-82.0032,2.14,32.06,1111122 
SCCF RECON,ioos:station:SCCF:13:1,2011-05-08T07:00:00Z,26.5255,-82.0032,2.229,31.66,1111122 
SCCF RECON,ioos:station:SCCF:13:1,2011-05-08T08:00:00Z,26.5255,-82.0032,2.29,32.13,1111122 
SCCF RECON,ioos:station:SCCF:13:1,2011-05-08T09:00:00Z,26.5255,-82.0032,2.34,33.44,1111122 
SCCF RECON,ioos:station:SCCF:13:1,2011-05-08T10:00:00Z,26.5255,-82.0032,2.37,33.86,1111122 
SCCF RECON,ioos:station:SCCF:13:1,2011-05-08T11:00:00Z,26.5255,-82.0032,2.38,34.22,1111122 
SCCF RECON,ioos:station:SCCF:13:1,2011-05-08T12:00:00Z,26.5255,-82.0032,2.36,34.67,1111122 
SCCF RECON,ioos:station:SCCF:13:1,2011-05-08T13:00:00Z,26.5255,-82.0032,2.329,34.7,1111122 
SCCF RECON,ioos:station:SCCF:13:1,2011-05-08T14:00:00Z,26.5255,-82.0032,2.342,34.74,1111122 
SCCF RECON,ioos:station:SCCF:13:1,2011-05-08T15:00:00Z,26.5255,-82.0032,2.35,34.63,1111122 
SCCF RECON,ioos:station:SCCF:13:1,2011-05-08T16:00:00Z,26.5255,-82.0032,2.364,34.57,1111122 
SCCF RECON,ioos:station:SCCF:13:1,2011-05-08T17:00:00Z,26.5255,-82.0032,2.409,34.5,1111122 
SCCF RECON,ioos:station:SCCF:13:1,2011-05-08T18:00:00Z,26.5255,-82.0032,2.46,34.71,1111122 
SCCF RECON,ioos:station:SCCF:13:1,2011-05-08T19:00:00Z,26.5255,-82.0032,2.506,34.7,1111122 
SCCF RECON,ioos:station:SCCF:13:1,2011-05-08T20:00:00Z,26.5255,-82.0032,2.55,34.62,1111122 
SCCF RECON,ioos:station:SCCF:13:1,2011-05-08T21:00:00Z,26.5255,-82.0032,2.56,34.6,1111122 
SCCF RECON,ioos:station:SCCF:13:1,2011-05-08T22:00:00Z,26.5255,-82.0032,2.53,34.63,1111122 
SCCF RECON,ioos:station:SCCF:13:1,2011-05-08T23:00:00Z,26.5255,-82.0032,2.45,34.67,1111122 
SCCF RECON,ioos:station:SCCF:13:1,2011-05-09T00:00:00Z,26.5255,-82.0032,2.38,34.66,1111122 
SCCF RECON,ioos:station:SCCF:13:1,2011-05-09T01:00:00Z,26.5255,-82.0032,2.31,34.54,1111122 
SCCF RECON,ioos:station:SCCF:13:1,2011-05-09T02:00:00Z,26.5255,-82.0032,2.23,34.57,1111122 
SCCF RECON,ioos:station:SCCF:13:1,2011-05-09T03:00:00Z,26.5255,-82.0032,2.15,34.4,1111122 
SCCF RECON,ioos:station:SCCF:13:1,2011-05-09T04:00:00Z,26.5255,-82.0032,2.076,33.85,1111122 
SCCF RECON,ioos:station:SCCF:13:1,2011-05-09T05:00:00Z,26.5255,-82.0032,2.03,32.8,1111122 
SCCF RECON,ioos:station:SCCF:13:1,2011-05-09T06:00:00Z,26.5255,-82.0032,2.06,32.32,1111122 
SCCF RECON,ioos:station:SCCF:13:1,2011-05-09T07:00:00Z,26.5255,-82.0032,2.16,31.89,1111122 
SCCF RECON,ioos:station:SCCF:13:1,2011-05-09T08:00:00Z,26.5255,-82.0032,2.25,31.67,1111122 
SCCF RECON,ioos:station:SCCF:13:1,2011-05-09T09:00:00Z,26.5255,-82.0032,2.31,32.97,1111122 
SCCF RECON,ioos:station:SCCF:13:1,2011-05-09T10:00:00Z,26.5255,-82.0032,2.37,33.71,1111122 
SCCF RECON,ioos:station:SCCF:13:1,2011-05-09T11:00:00Z,26.5255,-82.0032,2.404,34.14,1111122 
SCCF RECON,ioos:station:SCCF:13:1,2011-05-09T12:00:00Z,26.5255,-82.0032,2.4,34.48,1111122 
SCCF RECON,ioos:station:SCCF:13:1,2011-05-09T13:00:00Z,26.5255,-82.0032,2.359,34.54,1111122 
SCCF RECON,ioos:station:SCCF:13:1,2011-05-09T14:00:00Z,26.5255,-82.0032,2.328,34.49,1111122 
SCCF RECON,ioos:station:SCCF:13:1,2011-05-09T15:00:00Z,26.5255,-82.0032,2.312,34.55,1111122 
SCCF RECON,ioos:station:SCCF:13:1,2011-05-09T16:00:00Z,26.5255,-82.0032,2.309,34.29,1111122 
SCCF RECON,ioos:station:SCCF:13:1,2011-05-09T17:00:00Z,26.5255,-82.0032,2.31,33.96,1111122 
SCCF RECON,ioos:station:SCCF:13:1,2011-05-09T18:00:00Z,26.5255,-82.0032,2.34,33.88,1111122 
SCCF RECON,ioos:station:SCCF:13:1,2011-05-09T19:00:00Z,26.5255,-82.0032,2.38,34.17,1111122 
SCCF RECON,ioos:station:SCCF:13:1,2011-05-09T20:00:00Z,26.5255,-82.0032,2.42,34.28,1111122 
SCCF RECON,ioos:station:SCCF:13:1,2011-05-09T21:00:00Z,26.5255,-82.0032,2.454,34.44,1111122 
SCCF RECON,ioos:station:SCCF:13:1,2011-05-09T22:00:00Z,26.5255,-82.0032,2.48,34.42,1111122 
SCCF RECON,ioos:station:SCCF:13:1,2011-05-09T23:00:00Z,26.5255,-82.0032,2.46,34.41,1111122 
SCCF RECON,ioos:station:SCCF:13:1,2011-05-10T00:00:00Z,26.5255,-82.0032,2.4,34.39,1111122 
SCCF RECON,ioos:station:SCCF:13:1,2011-05-10T01:00:00Z,26.5255,-82.0032,2.35,34.4,1111122 
SCCF RECON,ioos:station:SCCF:13:1,2011-05-10T02:00:00Z,26.5255,-82.0032,2.28,34.31,1111122 
SCCF RECON,ioos:station:SCCF:13:1,2011-05-10T03:00:00Z,26.5255,-82.0032,2.21,34.32,1111122 
SCCF RECON,ioos:station:SCCF:13:1,2011-05-10T04:00:00Z,26.5255,-82.0032,2.13,34.03,1111122 
SCCF RECON,ioos:station:SCCF:13:1,2011-05-10T05:00:00Z,26.5255,-82.0032,2.06,33.14,1111122 
SCCF RECON,ioos:station:SCCF:13:1,2011-05-10T06:00:00Z,26.5255,-82.0032,2.02,32.28,1111122 
SCCF RECON,ioos:station:SCCF:13:1,2011-05-10T07:00:00Z,26.5255,-82.0032,2.05,31.75,1111122 
SCCF RECON,ioos:station:SCCF:13:1,2011-05-10T08:00:00Z,26.5255,-82.0032,2.13,31.37,1111122 
SCCF RECON,ioos:station:SCCF:13:1,2011-05-10T09:00:00Z,26.5255,-82.0032,2.22,31.28,1111122 
SCCF RECON,ioos:station:SCCF:13:1,2011-05-10T10:00:00Z,26.5255,-82.0032,2.28,32.55,1111122 
SCCF RECON,ioos:station:SCCF:13:1,2011-05-10T11:00:00Z,26.5255,-82.0032,2.34,33.34,1111122 
SCCF RECON,ioos:station:SCCF:13:1,2011-05-10T12:00:00Z,26.5255,-82.0032,2.37,33.51,1111122 
SCCF RECON,ioos:station:SCCF:13:1,2011-05-10T13:00:00Z,26.5255,-82.0032,2.38,34.22,1111122 
SCCF RECON,ioos:station:SCCF:13:1,2011-05-10T14:00:00Z,26.5255,-82.0032,2.37,34.28,1111122 
SCCF RECON,ioos:station:SCCF:13:1,2011-05-10T15:00:00Z,26.5255,-82.0032,2.35,34.29,1111122 
SCCF RECON,ioos:station:SCCF:13:1,2011-05-10T16:00:00Z,26.5255,-82.0032,2.32,34.27,1111122 
SCCF RECON,ioos:station:SCCF:13:1,2011-05-10T17:00:00Z,26.5255,-82.0032,2.28,34.26,1111122 
SCCF RECON,ioos:station:SCCF:13:1,2011-05-10T18:00:00Z,26.5255,-82.0032,2.28,33.96,1111122 
SCCF RECON,ioos:station:SCCF:13:1,2011-05-10T19:00:00Z,26.5255,-82.0032,2.315,33.49,1111122 
SCCF RECON,ioos:station:SCCF:13:1,2011-05-10T20:00:00Z,26.5255,-82.0032,2.35,33.81,1111122 
SCCF RECON,ioos:station:SCCF:13:1,2011-05-10T21:00:00Z,26.5255,-82.0032,2.406,34.05,1111122 
SCCF RECON,ioos:station:SCCF:13:1,2011-05-10T22:00:00Z,26.5255,-82.0032,2.442,34.08,1111122 
SCCF RECON,ioos:station:SCCF:13:1,2011-05-10T23:00:00Z,26.5255,-82.0032,2.46,34.11,1111122 
SCCF RECON,ioos:station:SCCF:13:1,2011-05-11T00:00:00Z,26.5255,-82.0032,2.464,34.16,1111122 
SCCF RECON,ioos:station:SCCF:13:1,2011-05-11T01:00:00Z,26.5255,-82.0032,2.45,34.18,1111122 
SCCF RECON,ioos:station:SCCF:13:1,2011-05-11T02:00:00Z,26.5255,-82.0032,2.38,34.17,1111122 
SCCF RECON,ioos:station:SCCF:13:1,2011-05-11T03:00:00Z,26.5255,-82.0032,2.31,34.13,1111122 
SCCF RECON,ioos:station:SCCF:13:1,2011-05-11T04:00:00Z,26.5255,-82.0032,2.24,33.98,1111122 
SCCF RECON,ioos:station:SCCF:13:1,2011-05-11T05:00:00Z,26.5255,-82.0032,2.17,33.06,1111122 
SCCF RECON,ioos:station:SCCF:13:1,2011-05-11T06:00:00Z,26.5255,-82.0032,2.1,32.91,1111122 
SCCF RECON,ioos:station:SCCF:13:1,2011-05-11T07:00:00Z,26.5255,-82.0032,2.064,32.04,1111122 
SCCF RECON,ioos:station:SCCF:13:1,2011-05-11T08:00:00Z,26.5255,-82.0032,2.11,31.6,1111122 
SCCF RECON,ioos:station:SCCF:13:1,2011-05-11T09:00:00Z,26.5255,-82.0032,2.226,31.31,1111122 
SCCF RECON,ioos:station:SCCF:13:1,2011-05-11T10:00:00Z,26.5255,-82.0032,2.3,32.0,1111122 
SCCF RECON,ioos:station:SCCF:13:1,2011-05-11T11:00:00Z,26.5255,-82.0032,2.36,32.83,1111122 
SCCF RECON,ioos:station:SCCF:13:1,2011-05-11T12:00:00Z,26.5255,-82.0032,2.43,33.33,1111122 
SCCF RECON,ioos:station:SCCF:13:1,2011-05-11T13:00:00Z,26.5255,-82.0032,2.48,34.04,1111122 
SCCF RECON,ioos:station:SCCF:13:1,2011-05-11T14:00:00Z,26.5255,-82.0032,2.507,34.21,1111122 
SCCF RECON,ioos:station:SCCF:13:1,2011-05-11T15:00:00Z,26.5255,-82.0032,2.5,34.23,1111122 
SCCF RECON,ioos:station:SCCF:13:1,2011-05-11T16:00:00Z,26.5255,-82.0032,2.44,34.21,1111122 
SCCF RECON,ioos:station:SCCF:13:1,2011-05-11T17:00:00Z,26.5255,-82.0032,2.373,34.21,1111122 
SCCF RECON,ioos:station:SCCF:13:1,2011-05-11T18:00:00Z,26.5255,-82.0032,2.321,34.2,1111122 